Regional Weather Roundup
Issued by NWS

Home | Current Version | Previous Version | Graphics & Text | Print | Product List | Glossary Off
Versions: 1 2 3 4 5 6 7 8 9 10 11 12 13 14 15 16 17 18 19 20 21 22 23 24 25 26 27 28 29 30 31 32 33 34 35 36 37 38 39 40 41 42 43 44 45 46 47 48 49 50

000
ASUS43 KDMX 231601
RWRIA

WEATHER ROUNDUP FOR IOWA
NATIONAL WEATHER SERVICE DES MOINES IA
1100 AM CDT MON APR 23 2018

NOTE: "FAIR" INDICATES FEW OR NO CLOUDS BELOW 12,000 FEET WITH NO
SIGNIFICANT WEATHER AND/OR OBSTRUCTIONS TO VISIBILITY.

* - THESE STATIONS ARE NOT NWS STATIONS...THUS NOT UNDER NWS
QUALITY CONTROL.  THEY ALSO DO NOT REPORT WEATHER SUCH
AS PRECIPITATION OR FOG.

IAZ001>003-012>014-020>022-031>034-043>046-231700-
   NORTHWEST IOWA

CITY           SKY/WX    TMP DP  RH WIND       PRES   REMARKS
CARROLL *      SUNNY     63  32  31 VRB6      30.20S
CHEROKEE *     SUNNY     62  34  35 SE3       30.22S
DENISON *      SUNNY     63  32  31 E9        30.21F
LE MARS *      SUNNY     63  32  31 VRB6      30.21S
ORANGE CITY *  SUNNY     63  36  36 CALM      30.21F
SHELDON *      SUNNY     61  36  39 SE7       30.20S
SIOUX CITY     SUNNY     61  34  36 VRB3      30.20F
SPENCER        SUNNY     60  36  40 SE6       30.23S
STORM LAKE *   SUNNY     59  36  41 E7        30.21F
$$

IAZ055>058-069>071-079>083-090>094-231700-
   SOUTHWEST IOWA

CITY           SKY/WX    TMP DP  RH WIND       PRES   REMARKS
ATLANTIC *     SUNNY     63  32  31 E9        30.18F
AUDUBON *      SUNNY     63  30  29 NE9       30.20F
CLARINDA *     SUNNY     64  32  29 E9        30.18F
COUNCIL BLFS * SUNNY     63  32  31 VRB6      30.18F
CRESTON *      SUNNY     63  30  29 NE12      30.18F
HARLAN  *      SUNNY     64  30  27 NE8G15    30.22F
LAMONI         SUNNY     64  33  31 NE16      30.15S
RED OAK *      SUNNY     66  36  32 E10       30.17F
SHENANDOAH *   SUNNY     66  32  28 NE9       30.17F
$$

IAZ047>049-059>061-072>074-084-231700-
   CENTRAL IOWA

CITY           SKY/WX    TMP DP  RH WIND       PRES   REMARKS
AMES           SUNNY     61  30  31 E6        30.20F
ANKENY *       SUNNY     63  30  29 NE8       30.20F
BOONE *        SUNNY     59  34  38 NE6       30.20S
CHARITON *     SUNNY     61  32  33 N14       30.16F
DES MOINES     PTSUNNY   63  33  32 N8        30.19F
KNOXVILLE *    SUNNY     61  30  31 NE10      30.16F
MARSHALLTOWN   SUNNY     62  32  32 NE7       30.19F
NEWTON *       SUNNY     63  30  29 NE10G17   30.18F
PELLA *        SUNNY     65  28  24 NE6       30.18F
$$

IAZ004>006-015-016-023>025-035-036-231700-
   NORTH CENTRAL IOWA

CITY           SKY/WX    TMP DP  RH WIND       PRES   REMARKS
ALGONA *       SUNNY     59  36  41 CALM      30.23S
CLARION *      SUNNY     59  34  38 VRB5      30.22S
ESTHERVILLE    SUNNY     50  41  71 CALM      30.23S
FORT DODGE *   SUNNY     60  35  39 E7        30.21F
MASON CITY     SUNNY     57  35  43 VRB3      30.24F
IOWA FALLS *   FAIR      60  32  34 NE7       30.22F
$$

IAZ007>011-017>019-026>030-037>042-050>054-066-231700-
   NORTHEAST IOWA

CITY           SKY/WX    TMP DP  RH WIND       PRES   REMARKS
CEDAR RAPIDS   FAIR      64  24  21 NE13      30.17F
CHARLES CITY * FAIR      59  32  36 VRB5      30.23S
CLINTON *      FAIR      61  31  32 NE16      30.16F
DECORAH *      FAIR      57  30  35 CALM      30.22F
DUBUQUE        FAIR      60  23  24 NE10      30.20F
MONTICELLO *   FAIR      63  21  20 E13G21    30.19S
OELWEIN *      FAIR      63  28  27 E9        30.21F
WATERLOO       FAIR      62  28  27 NE6       30.20F
$$

IAZ064-065-067-068-078-231700-
   EAST CENTRAL IOWA

CITY           SKY/WX    TMP DP  RH WIND       PRES   REMARKS
DAVENPORT      FAIR      61  29  29 N16       30.17F
IOWA CITY      FAIR      62  24  23 NE10      30.18F
MUSCATINE *    FAIR      63  28  27 N10G21    30.15F
QUAD CITIES    FAIR      62  29  28 NE12      30.13F
$$

IAZ062-063-075>077-085>089-095>099-231700-
   SOUTHEAST IOWA

CITY           SKY/WX    TMP DP  RH WIND       PRES   REMARKS
BURLINGTON     CLOUDY    60  31  33 NE15      30.11F
FAIRFIELD *    PTSUNNY   61  28  29 NE13      30.14F
FORT MADISON * CLOUDY    63  34  34 NE10G18   30.11F
KEOKUK *       CLOUDY    61  32  33 NE15      30.09F
OSKALOOSA *    FAIR      64  26  24 NE14      30.16F
CENTERVILLE *    N/A     64  32  29 N12       30.15F
OTTUMWA        SUNNY     64  29  26 NE15      30.15F
WASHINGTON *   PTSUNNY   61  28  29 NE15      30.16F
$$

ABBREVIATIONS USED IN REMARKS
   TC - TEMPERATURES IN CELSIUS
  WCI - WIND CHILL INDEX
   HX - HEAT INDEX
  VSB - VISIBILITY
$$




USA.gov is the U.S. government's official web portal to all federal, state and local government web resources and services.